Powrót do katalogu

COSMOS 1798

AktywnyMilitariaLEO
NORAD 17142·PAYLOAD·🇷🇺 Russia

Wystrzelony Nov 21, 1986 z Plesetsk Cosmodrome

Loading…

Następne Przeloty (najbliższe 24 godziny)

TLE

ŚwieżeSource: Space-Track

Epoka: Sep 14, 2026, 22:24 UTC

1 17142U 86092E   26257.93382159 -.00000029  00000-0 -81415-4 0  9998
2 17142  74.0113  71.4372 0027899 104.4704 328.6214 12.53477827821904

Śledź COSMOS 1798 w czasie rzeczywistym z AllMySat

Download on the App Store